Location: Warwick
(41.7000°N, 71.4170°W)
Time: 16:01:27
(UTC-04:00)

Hubble Space Telescope - Visible Passes

Search period start: 15 July 2018 00:00
Search period end: 25 July 2018 00:00
Orbit: 537 x 541 km, 28.5° (Epoch: 14 July)

Date Brightness Start Highest point End Pass type
(mag) Time Alt. Az. Time Alt. Az. Time Alt. Az.
17 Jul 3.0 04:06:19 10° S 04:07:02 11° S 04:07:53 10° SSE visible
18 Jul 2.9 03:56:29 11° S 03:56:31 11° S 03:57:56 10° SSE visible
19 Jul 3.0 03:46:41 12° SSE 03:46:41 12° SSE 03:47:43 10° SSE visible
20 Jul 3.1 03:36:59 11° SSE 03:36:59 11° SSE 03:37:23 10° SSE visible
